DECAYED

STARLINK-4361, 53493 (Decayed)

Orbit data source: Space-Track

STARLINK-4361, 53493 was a payload satellite owned by SpaceX/Seattle (US) in LEO that was launched on Fri, 12 Aug 2022 UTC via an FALCON 9 launch vehicle from the Air Force Western Test Range (AFWTR). Payload-class satellites include a variety of spacecraft equipped with specific instruments for various scientific and technological missions. These include communications satellites like Starlink; space stations such as the ISS; scientific satellites like the Hubble; Earth observation satellites from companies like Planet Labs, Umbra, and HawkEye 360; GPS; miniature CubeSats for education and research; and military/defense satellites.

Not visible in the next 10 days
Identifier
53493, 2022-099AE
Orbit
Decayed
Country
Flag of USUS
Related business
Manufacturer
SpaceX/Seattle
Mission
Decayed Commercial Communications
Bus & Motor
STARLINK, Unknown motor
Mass
300 kg wet, ~275 kg dry
Launch date (UTC)
2022-08-12 (4 years ago)
Launch vehicle
FALCON 9
Launch site
Air Force Western Test Range (AFWTR)
Object type
Payload
Rocket body
Debris
Shape & HBR
Box + 1 Pan, 10.1 m
Radar Cross Section
13.562 m², Large (>1 m²)

Expand to show TLE details & history
Last TLE update: 3 months ago

TLE from 3 months ago
0 STARLINK-4361
1 53493U 22099AE  26092.43260424  .10338441  27220-5  22204-3 0  9995
2 53493  97.6361 235.9843 0009326 275.0307  84.9930 16.46206006200888
Epoch: 2026-04-02T10:22Z
TLE epoch observation values (Epoch: 2026-04-02T10:22:57.006Z)
Latitude
-0.00004°
Longitude
-110.53438°
Altitude
152.072 km
Speed
7.815 km/s
True Right ascension
15h 43m 56s
True Declination
0° 00' 00"
Sunlit
Object was in full shadow at epoch
Visualization orbit readout
Latitude
Unknown
Longitude
Unknown
Altitude
Unknown
Speed
Unknown
Apparent Right ascension
Unknown
Apparent Declination
Unknown
Sunlit
N/A
Visualization observer readout
Local Sidereal Time
21:48:34
Azimuth
Unknown
Elevation
Unknown
Doppler factor
Unknown
Orbital elements
Apogee altitude
152.24 km
Perigee altitude
140.071 km
Semi-major axis
6,524.293 km
Eccentricity
0.00093
Inclination
97.6361°
RAAN
235.9843°
Arg. of periapsis
275.0307°
True anomaly
85.09947°
Mean anomaly
84.993°
Eccentric anomaly
85.04623°
Mean motion
4.11854 °/min
Orbital period
87.41 mins
BSTAR
0.00022204
Loading maneuver chart data...
Computing Atmospheric mass density...

Documentation

Showing up to 5 results
|